{"data":{"norad_id":43530,"intl_designator":"2018-056B","name":"PRSS-1","alt_names":[],"object_type":"PAYLOAD","status":"ACTIVE","operator":null,"country":"PAKI","launch_date":"2018-07-09","launch_site_code":"JSC","launch_vehicle":null,"mission":null,"orbit_class":"UNKNOWN","rcs_meters":null,"size_class":null,"mass_kg":null,"dimensions":null,"purposes":[],"wikipedia_slug":null,"has_3d_model":false,"image_url":null,"decayed_at":null,"tle_current":{"epoch":"2026-09-20T04:24:55.334592Z","epoch_age_seconds":83020,"freshness":"FRESH","line1":"1 43530U 18056B   26263.18397378  .00000024  00000+0  94022-5 0  9997","line2":"2 43530  97.7728 328.3833 0001753  80.8320 279.3091 14.82104220442504","mean_motion":14.8210422,"eccentricity":0.0001753,"inclination_deg":97.7728,"raan_deg":328.3833,"arg_perigee_deg":80.832,"mean_anomaly_deg":279.3091,"bstar":9.4022e-6,"rev_number":44250,"period_min":97.15915929313,"perigee_km":621.46274940943,"apogee_km":623.91723935366,"semimajor_km":7000.8269943815,"source":"CELESTRAK","updated_at":"2026-09-20T09:00:14.352829Z"}}}